TimeMDT,TemperatureF,Dew PointF,Humidity,Sea Level PressureIn,VisibilityMPH,Wind Direction,Wind SpeedMPH,Gust SpeedMPH,PrecipitationIn,Events,Conditions,WindDirDegrees,DateUTC
12:53 AM,57.0,46.0,67,30.26,10.0,ENE,8.1,-,N/A,,Clear,70,2013-09-12 06:53:00
1:53 AM,55.0,46.0,72,30.26,10.0,ENE,9.2,-,N/A,,Clear,70,2013-09-12 07:53:00
2:53 AM,53.1,45.0,74,30.26,10.0,ENE,8.1,-,N/A,,Clear,70,2013-09-12 08:53:00
3:53 AM,51.1,45.0,80,30.26,10.0,ENE,5.8,-,N/A,,Clear,70,2013-09-12 09:53:00
4:53 AM,50.0,44.1,80,30.25,10.0,ENE,6.9,-,N/A,,Clear,70,2013-09-12 10:53:00
5:53 AM,50.0,44.1,80,30.27,10.0,Calm,Calm,-,N/A,,Clear,0,2013-09-12 11:53:00
6:53 AM,46.0,43.0,89,30.27,10.0,Calm,Calm,-,N/A,,Clear,0,2013-09-12 12:53:00
7:53 AM,50.0,45.0,83,30.28,10.0,Calm,Calm,-,N/A,,Clear,0,2013-09-12 13:53:00
8:53 AM,55.9,46.0,69,30.27,10.0,ENE,4.6,-,N/A,,Clear,60,2013-09-12 14:53:00
9:53 AM,62.1,46.9,58,30.25,10.0,ENE,6.9,-,N/A,,Clear,70,2013-09-12 15:53:00
10:53 AM,68.0,46.9,47,30.24,10.0,ENE,8.1,-,N/A,,Clear,70,2013-09-12 16:53:00
11:53 AM,73.0,48.9,42,30.21,10.0,ENE,9.2,-,N/A,,Clear,70,2013-09-12 17:53:00
12:53 PM,78.1,46.9,33,30.17,10.0,NE,9.2,-,N/A,,Clear,50,2013-09-12 18:53:00
1:53 PM,81.0,45.0,28,30.13,10.0,NW,6.9,-,N/A,,Clear,320,2013-09-12 19:53:00
2:53 PM,82.0,43.0,25,30.11,10.0,Variable,4.6,-,N/A,,Clear,0,2013-09-12 20:53:00
3:53 PM,82.0,42.1,24,30.09,10.0,Calm,Calm,-,N/A,,Clear,0,2013-09-12 21:53:00
4:53 PM,84.0,43.0,24,30.06,10.0,ENE,8.1,-,N/A,,Clear,60,2013-09-12 22:53:00
5:53 PM,82.0,48.0,30,30.04,10.0,ESE,10.4,-,N/A,,Clear,110,2013-09-12 23:53:00
6:53 PM,79.0,50.0,36,30.04,10.0,SE,11.5,-,N/A,,Clear,130,2013-09-13 00:53:00
7:53 PM,70.0,53.1,55,30.03,10.0,ESE,8.1,-,N/A,,Clear,110,2013-09-13 01:53:00
8:53 PM,66.0,51.1,59,30.03,10.0,East,10.4,-,N/A,,Clear,80,2013-09-13 02:53:00
9:53 PM,64.0,51.1,63,30.01,10.0,East,8.1,-,N/A,,Clear,80,2013-09-13 03:53:00
10:53 PM,62.1,51.1,67,29.99,10.0,ENE,9.2,-,N/A,,Clear,70,2013-09-13 04:53:00
11:53 PM,61.0,51.1,70,29.97,10.0,NE,8.1,-,N/A,,Clear,50,2013-09-13 05:53:00